Location: Burla
(50.9568°N, 10.4983°E)
Time: 19:07:52
(UTC+00:00)

SeaSat 1 - Pass Details

Date: 18 January 2026
Orbit: 737 x 740 km, 108.0° (Epoch: 18 February)

Event Time Altitude Azimuth Distance (km) Brightness Sun altitude
Rises 05:26:57 0° 35° (NE) 3,185 6.0 -16.0°
Reaches altitude 10° 05:29:21 10° 42° (NE) 2,258 5.3 -15.7°
Maximum altitude 05:33:59 41° 113° (ESE) 1,075 3.9 -14.9°
Drops below altitude 10° 05:38:35 10° 183° (S) 2,244 5.1 -14.2°
Sets 05:40:57 0° 191° (S) 3,162 5.8 -13.9°
